Content
SEND FEEDBACK

Daily
Averages
Monthly
Summary
United States of America

BERKELEY, MISSOURI


Home > North America > United States > Missouri
Elevation: 564 feet     Latitude: 38 45N     Longitude: 090 22W

WEATHER
 
SELECT A DAY
Number of Records: 203,439;   Date Range: 1/1/95 - 7/29/14
 
SHARE

PRINT THIS DATA

[ ← Previous Day ]
WEATHER ALMANAC - MARCH 24, 2013
[ Next Day → ]
[ °C ]   °F
Weather ElementAverageHighLow
Temperature33.7 °F41 °F (12:51 am)32 °F (11:51 am)
Dewpoint29.9 °F33.8 °F (1:49 am)28.4 °F (12:05 pm)
Humidity86.3 %93 % (12:09 pm)73 % (12:51 am)
Barometer29.68 in29.89 in (1:51 am)29.57 in (1:16 pm)
Wind Speed15 mph20.7 mph (4:51 pm)
Wind Gust29.9 mph (5:51 pm)
Weather ElementAverage
Visibility1.3 mi
Wind DirectionSSW (218.3 °)

Weather ElementTotal
Precipitation2.94 in
Heating Degree Days28.5 (Base 65)
Averaged from 60 records on March 24, 2013
WEATHER CONDITIONS BREAKOUT
WIND DIRECTION BREAKOUT
WEATHER BY HOUR - MARCH 24, 2013
[ °C ]   °F
Local TimeTemperatureDewpointHumidityBarometerVisibilityWind DirectionWind SpeedGust SpeedPrecipitationEventsConditions
12:51 AM41.0 °F33.1 °F73 %29.87 in6.0 miNE (50°)11.5 mph0.05 inRainLight Rain
1:49 AM39.2 °F33.8 °F81 %29.87 in4.0 miNE (40°)15.0 mph20.7 mph0.01 inRainLight Rain
1:51 AM39.0 °F33.1 °F79 %29.89 in4.0 miNNE (30°)10.4 mph20.7 mph0.01 inRainLight Rain
2:09 AM37.4 °F33.8 °F87 %29.85 in3.0 miNNE (30°)13.8 mph23.0 mph0.02 inRainLight Rain
2:51 AM35.1 °F32.0 °F89 %29.81 in3.0 miNE (40°)15.0 mph20.7 mph0.05 inRain-SnowLight Rain
3:28 AM35.6 °F30.2 °F81 %29.79 in4.0 miNE (40°)15.0 mph24.2 mph0.00 inRain-SnowLight Rain
3:51 AM35.1 °F30.9 °F85 %29.82 in6.0 miNE (40°)13.8 mph19.6 mph0.00 inSnowLight Drizzle
4:20 AM35.6 °F30.2 °F81 %29.78 in4.0 miENE (60°)17.3 mph23.0 mph0.00 inRainLight Rain
4:51 AM34.0 °F30.0 °F85 %29.76 in4.0 miENE (60°)19.6 mph25.3 mph0.01 inRainLight Rain
5:51 AM34.0 °F30.0 °F85 %29.74 in5.0 miENE (60°)13.8 mph0.00 inRainLight Rain
6:15 AM33.8 °F30.2 °F87 %29.72 in3.0 miNE (50°)12.7 mph0.00 inSnowLight Snow
6:51 AM33.1 °F30.0 °F89 %29.70 in3.0 miENE (60°)13.8 mph21.9 mph0.01 inSnowLight Snow
7:51 AM34.0 °F30.0 °F85 %29.63 in3.0 miENE (60°)15.0 mph0.00 inSnowLight Snow
7:58 AM33.8 °F30.2 °F87 %29.62 in3.0 miENE (60°)12.7 mph21.9 mph0.00 inSnowLight Snow
8:06 AM33.8 °F30.2 °F87 %29.62 in2.0 miENE (70°)15.0 mph20.7 mph0.01 inSnowLight Snow
8:29 AM33.8 °F30.2 °F87 %29.62 in3.0 miENE (70°)11.5 mph0.03 inSnowLight Snow
8:44 AM33.8 °F30.2 °F87 %29.59 in2.0 miNE (50°)13.8 mph0.04 inSnowLight Snow
8:55 AM33.8 °F30.2 °F87 %29.59 in0.8 miNE (50°)13.8 mph0.00 inSnowLight Snow
9:17 AM33.8 °F30.2 °F87 %29.64 in0.2 miNW (320°)11.5 mph0.06 inFog-SnowHeavy Snow
9:21 AM33.8 °F30.2 °F87 %29.64 in0.2 miNW (310°)15.0 mph0.08 inFog-SnowHeavy Snow
9:25 AM33.8 °F30.2 °F87 %29.65 in0.2 miNW (320°)15.0 mph0.09 inFog-Snow-ThunderstormHeavy Thunderstorms and Snow
9:27 AM33.8 °F30.2 °F87 %29.65 in0.2 miNW (320°)15.0 mph0.10 inFog-Snow-ThunderstormHeavy Thunderstorms and Snow
9:32 AM33.8 °F30.2 °F87 %29.65 in0.1 miNW (310°)15.0 mph0.12 inFog-Snow-ThunderstormHeavy Thunderstorms and Snow
9:48 AM33.8 °F30.2 °F87 %29.64 in0.2 miNNW (340°)15.0 mph0.25 inFog-SnowHeavy Snow
9:51 AM33.1 °F30.0 °F89 %29.64 in0.2 miNorth (360°)17.3 mph24.2 mph0.26 inFog-SnowHeavy Snow
10:23 AM33.8 °F30.2 °F87 %29.62 in0.2 miNorth (10°)17.3 mph0.06 inFog-SnowHeavy Snow
10:35 AM33.8 °F30.2 °F87 %29.61 in0.2 miNorth (10°)15.0 mph0.08 inFog-SnowHeavy Snow
10:45 AM33.8 °F30.2 °F87 %29.61 in0.2 miNorth (360°)15.0 mph0.10 inFog-SnowHeavy Snow
10:51 AM33.1 °F30.0 °F89 %29.62 in0.2 miNorth (360°)16.1 mph0.11 inFog-SnowHeavy Snow
10:58 AM33.8 °F30.2 °F87 %29.61 in0.2 miNorth (10°)13.8 mph0.02 inFog-SnowHeavy Snow
11:09 AM33.8 °F30.2 °F87 %29.60 in0.5 miNorth (10°)15.0 mph25.3 mph0.03 inFog-SnowSnow
11:51 AM32.0 °F28.9 °F88 %29.61 in0.5 miNorth (360°)12.7 mph0.08 inFog-SnowSnow
12:05 PM32.0 °F28.4 °F87 %29.59 in0.2 miNorth (360°)11.5 mph23.0 mph0.02 inFog-SnowHeavy Snow
12:09 PM32.0 °F30.2 °F93 %29.59 in0.2 miNorth (10°)11.5 mph23.0 mph0.03 inFog-SnowHeavy Snow
12:51 PM32.0 °F30.0 °F92 %29.60 in0.2 miNorth (360°)9.2 mph0.18 inFog-SnowHeavy Snow
1:16 PM32.0 °F28.4 °F87 %29.57 in0.2 miNorth (360°)13.8 mph0.03 inFog-SnowHeavy Snow
1:30 PM32.0 °F28.4 °F87 %29.57 in0.2 miNorth (350°)13.8 mph0.04 inFog-SnowHeavy Snow
1:51 PM32.0 °F28.9 °F88 %29.60 in0.2 miNorth (350°)17.3 mph0.04 inFog-SnowHeavy Snow
1:57 PM32.0 °F28.4 °F87 %29.57 in0.5 miNNW (340°)17.3 mph23.0 mph0.01 inFog-SnowSnow
2:19 PM33.8 °F28.4 °F81 %29.57 in0.2 miNNW (340°)11.5 mph21.9 mph0.02 inFog-SnowHeavy Snow
2:35 PM33.8 °F30.2 °F87 %29.58 in0.5 miNNW (330°)11.5 mph0.05 inFog-SnowSnow
2:46 PM33.8 °F30.2 °F87 %29.58 in0.5 miNW (320°)12.7 mph0.07 inFog-SnowSnow
2:51 PM33.1 °F30.0 °F89 %29.61 in0.5 miNNW (330°)12.7 mph19.6 mph0.08 inFog-SnowSnow
3:05 PM33.8 °F28.4 °F81 %29.59 in0.5 miNNW (330°)13.8 mph20.7 mph0.02 inFog-SnowSnow
3:45 PM33.8 °F30.2 °F87 %29.60 in0.2 miNW (320°)15.0 mph0.07 inFog-SnowHeavy Snow
3:51 PM32.0 °F30.0 °F92 %29.63 in0.2 miNW (320°)18.4 mph24.2 mph0.09 inFog-SnowHeavy Snow
3:59 PM33.8 °F28.4 °F81 %29.61 in0.2 miNW (320°)19.6 mph0.01 inFog-SnowHeavy Snow
4:18 PM33.8 °F28.4 °F81 %29.62 in0.2 miNW (320°)19.6 mph0.03 inFog-SnowHeavy Snow
4:26 PM33.8 °F28.4 °F81 %29.62 in0.5 miNW (320°)13.8 mph25.3 mph0.04 inFog-SnowSnow
4:51 PM33.8 °F30.2 °F87 %29.63 in0.5 miNW (310°)20.7 mph25.3 mphFog-SnowSnow
5:01 PM33.8 °F30.2 °F87 %29.64 in0.2 miNW (320°)17.3 mph25.3 mph0.01 inFog-SnowHeavy Snow
5:51 PM32.0 °F28.9 °F88 %29.70 in0.2 miNW (310°)20.7 mph29.9 mph0.08 inFog-SnowHeavy Snow
6:51 PM32.0 °F28.9 °F88 %29.73 in0.5 miNW (310°)19.6 mph28.8 mph0.09 inFog-SnowSnow
7:51 PM32.0 °F28.9 °F88 %29.77 in0.8 miNW (310°)16.1 mph23.0 mph0.05 inSnowLight Snow
8:51 PM32.0 °F28.9 °F88 %29.79 in0.8 miNW (310°)15.0 mph24.2 mph0.05 inSnowLight Snow
9:51 PM32.0 °F28.9 °F88 %29.81 in1.0 miNW (310°)20.7 mph28.8 mph0.04 inSnowLight Snow
10:51 PM32.0 °F28.9 °F88 %29.83 in1.0 miWNW (300°)16.1 mph24.2 mph0.02 inSnowLight Snow
11:08 PM32.0 °F28.4 °F87 %29.81 in0.8 miWNW (300°)18.4 mph27.6 mph0.02 inSnowLight Snow
11:33 PM32.0 °F28.4 °F87 %29.81 in1.0 miNW (310°)15.0 mph0.03 inSnowLight Snow
11:51 PM32.0 °F28.9 °F88 %29.85 in1.5 miNW (310°)13.8 mph21.9 mph0.04 inSnowLight Snow
Hourly data recorded from KSTL, located miles away from Berkeley, Missouri







STORIES FROM OUR PARTNERS